This is the latest recevied weather packets stored in our database for station/object KB8SSH. If no packets are shown the sender has not sent any weather packets the latest 10 day(s).
| Time | Temp. | Humidity | Pressure | Rain* | Wind** | Luminosity | Snow |
|---|---|---|---|---|---|---|---|
| 1777837032 | 16.67° C | 37% | 1048.8 hPa | 0 mm | - | 199 W/m² | - |
| 1777836728 | 17.22° C | 37% | 1049.1 hPa | 0 mm | - | 704 W/m² | - |
| 1777836423 | 16.67° C | 38% | 1049.1 hPa | 0 mm | - | 627 W/m² | - |
| 1777836119 | 16.67° C | 37% | 1049.1 hPa | 0 mm | - | 694 W/m² | - |
| 1777835816 | 16.67° C | 37% | 1049.1 hPa | 0 mm | - | 179 W/m² | - |
| 1777835513 | 16.67° C | 37% | 1049.1 hPa | 0 mm | - | 317 W/m² | - |
| 1777835210 | 16.67° C | 38% | 1049.1 hPa | 0 mm | - | 160 W/m² | - |
| 1777834907 | 15.56° C | 38% | 1049.4 hPa | 0 mm | - | 750 W/m² | - |
| 1777834603 | 16.11° C | 38% | 1049.4 hPa | 0 mm | - | 250 W/m² | - |
| 1777834299 | 16.11° C | 40% | 1049.4 hPa | 0 mm | - | 726 W/m² | - |
| 1777833994 | 15° C | 40% | 1049.8 hPa | 0 mm | - | 772 W/m² | - |
| 1777833691 | 15.56° C | 40% | 1049.8 hPa | 0 mm | - | 190 W/m² | - |
| 1777833387 | 16.11° C | 37% | 1049.8 hPa | 0 mm | - | 234 W/m² | - |
| 1777833084 | 16.11° C | 38% | 1049.8 hPa | 0 mm | - | 707 W/m² | - |
| 1777832782 | 16.67° C | 37% | 1050.2 hPa | 0 mm | - | 690 W/m² | - |
| 1777832481 | 16.67° C | 39% | 1050.2 hPa | 0 mm | - | 186 W/m² | - |
| 1777832177 | 16.67° C | 39% | 1049.8 hPa | 0 mm | - | 174 W/m² | - |
| 1777831874 | 16.67° C | 40% | 1050.2 hPa | 0 mm | - | 715 W/m² | - |
| 1777831571 | 15.56° C | 40% | 1050.2 hPa | 0 mm | - | 703 W/m² | - |
| 1777831269 | 16.11° C | 41% | 1050.6 hPa | 0 mm | - | 763 W/m² | - |
| 1777830965 | 16.67° C | 39% | 1050.2 hPa | 0 mm | - | 709 W/m² | - |
| 1777830663 | 16.67° C | 40% | 1050.2 hPa | 0 mm | - | 750 W/m² | - |
| 1777830359 | 16.67° C | 39% | 1050.6 hPa | 0 mm | - | 699 W/m² | - |
| 1777830056 | 16.11° C | 41% | 1050.6 hPa | 0 mm | - | 684 W/m² | - |
| 1777829751 | 16.11° C | 39% | 1050.6 hPa | 0 mm | - | 726 W/m² | - |
* Rain latest hour (hover to see other rain measurements)
** Current wind speed in m/s (hover to see current wind gust speed)